Date,TemperatureHighF,TemperatureAvgF,TemperatureLowF,DewpointHighF,DewpointAvgF,DewpointLowF,HumidityHigh,HumidityAvg,HumidityLow,PressureMaxIn,PressureMinIn,WindSpeedMaxMPH,WindSpeedAvgMPH,GustSpeedMaxMPH,PrecipitationSumIn
2013-1-1,28,26,23,27,19,-100,100,95,89,30.28,30.10,0,-999,0,0.00
2013-1-2,40,29,17,29,16,-100,100,83,58,30.30,30.16,0,-999,0,0.00
2013-1-3,39,28,20,27,22,18,94,80,53,30.46,30.29,0,-999,0,0.00
2013-1-4,50,33,17,30,23,16,98,71,31,30.42,30.23,0,-999,0,0.00
2013-1-5,50,39,31,32,29,23,88,66,43,30.30,30.11,0,-999,0,0.00
2013-1-6,53,35,24,27,24,21,93,66,32,30.42,30.26,0,-999,0,0.00
2013-1-7,53,37,27,28,25,21,80,61,37,30.26,30.01,0,-999,0,0.00
2013-1-8,58,42,31,36,32,27,91,69,37,30.17,29.94,0,-999,0,0.00
2013-1-9,53,42,31,41,32,27,91,70,48,30.36,30.14,0,-999,0,0.00
2013-1-10,51,46,43,44,-65,-100,101,100,90,30.14,29.76,0,-999,0,0.00
2013-1-11,64,53,44,50,14,-100,102,74,30,29.83,29.57,0,-999,0,0.00
2013-1-12,49,32,24,33,20,13,80,62,36,30.06,29.82,0,-999,0,0.00
2013-1-14,34,29,22,15,11,9,72,49,36,30.39,30.29,0,-999,0,0.00
2013-1-15,34,24,19,18,14,12,90,67,39,30.31,30.20,0,-999,0,0.00
2013-1-16,51,32,16,31,22,12,94,67,44,30.23,30.09,0,-999,0,0.00
2013-1-17,59,42,32,33,29,26,82,62,35,30.51,30.22,0,-999,0,0.00
2013-1-18,60,44,30,34,31,27,87,63,37,30.42,30.09,0,-999,0,0.00
2013-1-19,64,47,35,33,30,25,81,54,23,30.22,30.04,0,-999,0,0.00
2013-1-20,65,44,29,32,27,15,78,53,28,30.33,30.10,0,-999,0,0.00
2013-1-21,44,29,18,15,13,11,78,53,29,30.43,30.23,0,-999,0,0.00
2013-1-22,58,36,20,29,21,13,83,57,32,30.25,30.09,0,-999,0,0.00
2013-1-23,61,40,24,39,29,20,87,66,40,30.21,30.09,0,-999,0,0.00
2013-1-24,39,30,27,28,21,16,83,68,56,30.28,30.11,0,-999,0,0.00
2013-1-25,50,36,23,28,25,20,89,67,43,30.25,30.12,0,-999,0,0.00
2013-1-26,54,42,29,44,36,24,98,78,60,30.22,29.96,0,-999,0,0.00
2013-1-27,72,57,44,58,-7,-100,102,85,54,29.98,29.71,0,-999,0,0.00
2013-1-28,73,62,50,60,55,45,93,77,54,29.84,29.66,0,-999,0,0.00
2013-1-29,64,50,38,60,45,31,98,84,63,29.66,29.53,0,-999,0,0.00
2013-1-30,43,36,27,32,23,15,85,61,33,30.01,29.65,0,-999,0,0.00
2013-1-31,50,34,18,27,20,9,76,56,37,30.42,30.00,0,-999,0,0.00
2013-2-1,44,26,12,20,13,8,90,61,34,30.40,30.11,0,-999,0,0.00
2013-2-2,61,44,28,36,27,20,81,53,27,30.30,30.15,0,-999,0,0.00
2013-2-3,61,45,30,33,27,23,74,51,29,30.29,29.85,0,-999,0,0.00
2013-2-4,62,50,40,33,30,27,67,47,28,29.95,29.78,0,-999,0,0.00
2013-2-5,70,47,31,32,28,24,82,53,21,30.03,29.91,0,-999,0,0.00
2013-2-6,60,48,37,56,44,29,99,85,59,30.01,29.78,0,-999,0,0.00
2013-2-7,57,52,40,56,44,29,99,76,41,30.20,29.75,0,-999,0,0.00
2013-2-8,54,40,26,33,29,24,93,68,37,30.30,30.10,0,-999,0,0.00
2013-2-9,46,42,33,45,32,-100,100,88,76,30.11,29.62,0,-999,0,0.00
2013-2-10,56,46,36,35,6,-100,101,58,29,30.07,29.56,0,-999,0,0.00
2013-2-11,50,37,25,25,22,20,87,58,31,30.22,30.05,0,-999,0,0.00
2013-2-12,38,34,31,33,9,-100,101,80,56,30.11,30.01,0,-999,0,0.00
2013-2-13,49,34,24,36,-19,-100,104,88,56,30.03,29.94,0,-999,0,0.00
2013-2-14,54,42,34,37,32,28,90,68,47,30.27,29.95,0,-999,0,0.00
2013-2-15,42,34,26,35,23,19,97,67,45,30.43,30.26,0,-999,0,0.00
2013-2-16,56,38,19,36,23,-100,101,72,46,30.38,30.01,0,-999,0,0.00
2013-2-17,71,50,29,35,31,26,88,52,25,30.01,29.60,0,-999,0,0.00
2013-2-18,56,48,36,43,28,-100,74,49,32,30.14,29.52,0,-999,0,0.00
2013-2-19,54,45,34,25,24,21,66,45,32,30.31,30.14,0,-999,0,0.00
2013-2-20,40,34,32,32,-49,-100,101,92,54,30.16,29.89,0,-999,0,0.00
2013-2-21,33,29,19,22,-80,-100,103,100,93,29.93,29.66,0,-999,0,0.00
2013-2-22,26,21,15,19,17,13,99,82,68,30.14,30.07,0,-999,0,0.00
2013-2-23,44,28,14,32,8,-100,102,84,58,30.09,29.85,0,-999,0,0.00
2013-2-24,61,40,29,43,33,26,93,76,48,29.85,29.66,0,-999,0,0.00
2013-2-25,36,35,34,36,5,-100,100,97,93,29.80,29.72,0,-999,0,0.00
2013-2-28,38,33,26,30,28,26,98,81,69,30.24,30.21,0,-999,0,0.00
2013-3-1,35,29,23,29,-16,-100,102,91,77,30.34,30.21,0,-999,0,0.00
2013-3-2,49,34,20,36,4,-100,102,80,53,30.37,30.11,0,-999,0,0.00
2013-3-3,68,49,33,43,36,30,91,64,37,30.13,29.54,0,-999,0,0.00
2013-3-4,55,44,35,43,37,33,93,79,61,30.08,29.48,0,-999,0,0.00
2013-3-5,45,37,29,35,23,19,84,58,39,30.38,30.08,0,-999,0,0.00
2013-3-6,50,37,24,28,25,21,95,64,38,30.42,30.13,0,-999,0,0.00
2013-3-7,69,51,33,35,29,24,73,46,25,30.13,29.94,0,-999,0,0.00
2013-3-8,64,54,48,55,26,-100,101,69,39,30.02,29.84,0,-999,0,0.00
2013-3-9,62,58,44,61,9,-100,103,89,45,29.87,29.56,0,-999,0,0.00
2013-3-10,44,37,35,39,31,27,87,76,67,30.06,29.65,0,-999,0,0.00
2013-3-11,57,38,24,31,25,19,85,63,30,30.06,29.94,0,-999,0,0.00
2013-3-12,57,46,37,40,32,27,83,60,34,30.33,30.01,0,-999,0,0.00
2013-3-13,63,46,30,38,30,24,84,57,34,30.43,30.23,0,-999,0,0.00
2013-3-14,82,60,40,44,40,35,80,52,24,30.25,30.06,0,-999,0,0.00
2013-3-15,85,63,48,49,44,41,81,56,20,30.08,29.72,0,-999,0,0.00
2013-3-18,58,51,39,37,29,26,79,44,28,30.01,29.94,0,-999,0,0.00
2013-3-19,62,45,33,35,29,25,73,55,31,30.25,29.99,0,-999,0,0.00
2013-3-20,56,42,30,32,28,25,92,61,34,30.39,29.98,0,-999,0,0.00
2013-3-21,58,45,38,38,31,26,78,58,43,29.98,29.58,0,-999,0,0.00
2013-3-22,49,39,35,37,34,32,97,83,63,29.93,29.73,0,-999,0,0.00
2013-3-23,39,36,35,37,35,33,99,96,87,29.89,29.73,0,-999,0,0.00
2013-3-25,42,36,26,20,17,15,77,48,36,30.38,30.29,0,-999,0,0.00
2013-3-26,56,37,21,27,22,17,86,58,30,30.43,30.13,0,-999,0,0.00
2013-3-27,69,52,41,39,30,24,61,44,29,30.13,30.00,0,-999,0,0.00
2013-3-28,72,56,40,52,45,37,87,68,46,30.11,30.01,0,-999,0,0.00
2013-3-29,74,61,48,59,27,-100,102,81,56,30.10,29.98,0,-999,0,0.00
2013-3-30,82,64,53,59,34,-100,101,78,28,30.00,29.85,0,-999,0,0.00
2013-4-1,49,43,38,42,37,31,85,78,68,30.18,30.13,0,-999,0,0.00
2013-4-2,39,37,34,35,32,29,96,85,66,30.22,30.15,0,-999,0,0.00
2013-4-3,37,36,34,35,34,33,97,92,84,30.25,30.16,0,-999,0,0.00
2013-4-4,51,42,34,40,38,33,98,86,64,30.24,30.13,0,-999,0,0.00
2013-4-5,66,50,36,50,42,35,96,77,52,30.16,29.82,0,-999,0,0.00
2013-4-6,78,63,53,51,48,44,79,60,31,29.85,29.72,0,-999,0,0.00
2013-4-7,57,54,52,52,52,51,97,92,83,29.85,29.84,0,-999,0,0.00
2013-4-8,81,73,63,66,63,61,92,73,60,29.62,29.50,0,-999,0,0.00
2013-4-9,74,59,34,64,53,32,96,81,68,29.97,29.54,0,-999,0,0.00
2013-4-10,33,32,30,32,30,28,94,91,85,30.02,29.91,0,-999,0,0.00
2013-4-11,61,40,28,38,29,24,88,68,36,30.00,29.72,0,-999,0,0.00
2013-4-12,59,47,35,43,37,32,93,70,47,30.04,29.81,0,-999,0,0.00
2013-4-13,76,58,44,52,45,39,94,67,36,30.02,29.60,0,-999,0,0.00
2013-4-14,79,66,59,57,51,34,73,58,35,29.67,29.46,0,-999,0,0.00
2013-4-15,63,56,47,40,35,31,67,46,37,29.87,29.67,0,-999,0,0.00
2013-4-16,51,47,45,45,39,33,100,74,57,30.01,29.84,0,-999,0,0.00
2013-4-17,45,45,45,45,-88,-100,102,101,100,29.93,29.82,0,-999,0,0.00
2013-4-19,66,59,46,35,31,27,61,37,23,30.07,30.00,0,-999,0,0.00
2013-4-20,71,55,39,37,34,32,79,49,25,30.06,29.91,0,-999,0,0.00
2013-4-21,70,60,51,49,42,34,75,52,39,30.12,30.01,0,-999,0,0.00
2013-4-22,77,61,45,59,51,44,97,71,52,30.06,29.74,0,-999,0,0.00
2013-4-23,43,36,34,41,32,28,96,87,73,30.28,29.98,0,-999,0,0.00
2013-4-24,56,38,29,34,30,28,98,77,34,30.31,30.24,0,-999,0,0.00
2013-4-25,69,65,58,39,36,32,45,34,28,30.28,30.06,0,-999,0,0.00
2013-4-26,63,57,52,54,29,-100,101,74,44,30.09,29.99,0,-999,0,0.00
2013-4-27,69,57,51,56,9,-100,102,86,60,30.15,30.00,0,-999,0,0.00
2013-4-28,85,66,47,58,22,-100,101,66,25,30.00,29.77,0,-999,0,0.00
2013-4-29,88,74,61,61,56,50,94,57,29,29.81,29.61,0,-999,0,0.00
2013-4-30,86,74,64,63,59,50,84,60,39,29.69,29.64,0,-999,0,0.00
2013-5-1,76,56,40,65,51,38,91,82,66,30.24,29.84,0,-999,0,0.00
2013-5-2,53,42,37,38,35,27,95,77,38,30.47,30.23,0,-999,0,0.00
2013-5-3,62,47,35,35,32,29,85,59,31,30.41,30.02,0,-999,0,0.00
2013-5-4,57,46,38,38,32,28,76,59,40,30.01,29.96,0,-999,0,0.00
2013-5-6,74,66,59,54,52,52,79,62,48,30.07,30.01,0,-999,0,0.00
2013-5-7,80,67,55,58,54,51,95,66,38,30.08,29.88,0,-999,0,0.00
2013-5-8,85,67,57,63,56,52,90,70,47,29.93,29.79,0,-999,0,0.00
2013-5-9,73,64,57,62,49,-100,101,84,66,30.00,29.80,0,-999,0,0.00
2013-5-10,72,62,54,59,55,50,98,79,46,30.11,29.99,0,-999,0,0.00
2013-5-11,71,61,53,57,50,41,96,70,35,30.27,30.11,0,-999,0,0.00
2013-5-12,54,52,50,44,42,40,70,68,66,30.27,30.26,0,-999,0,0.00
2013-5-13,92,83,73,59,53,48,56,37,27,30.07,29.95,0,-999,0,0.00
2013-5-14,89,78,68,57,49,42,59,37,24,30.00,29.85,0,-999,0,0.00
2013-5-15,76,69,60,65,61,55,95,75,61,29.89,29.77,0,-999,0,0.00
2013-5-16,79,66,57,64,15,-100,102,86,58,29.86,29.77,0,-999,0,0.00
2013-5-17,75,66,57,71,8,-100,102,95,85,29.89,29.80,0,-999,0,0.00
2013-5-18,93,73,72,73,68,-100,99,95,18,29.82,29.78,0,-999,0,0.00
2013-5-20,83,76,63,61,57,53,83,53,38,29.79,29.67,0,-999,0,0.00
2013-5-21,75,63,55,59,52,48,86,68,43,29.93,29.77,0,-999,0,0.00
2013-5-22,81,66,50,58,53,47,98,68,38,29.94,29.81,0,-999,0,0.00
2013-5-23,65,62,58,59,57,54,94,84,76,30.12,29.91,0,-999,0,0.00
2013-5-24,85,70,58,72,65,57,95,82,65,30.17,30.02,0,-999,0,0.00
2013-5-25,84,74,61,71,65,60,97,76,56,30.13,29.96,0,-999,0,0.00
2013-5-26,86,76,67,71,69,66,98,81,59,30.00,29.82,0,-999,0,0.00
2013-5-27,89,79,73,72,70,69,91,74,53,29.85,29.60,0,-999,0,0.00
2013-5-28,86,78,73,72,69,67,85,74,60,29.73,29.63,0,-999,0,0.00
2013-5-29,81,74,62,70,68,59,89,79,66,29.73,29.54,0,-999,0,0.00
2013-5-30,89,79,72,71,65,53,83,65,30,29.67,29.56,0,-999,0,0.00
2013-5-31,90,77,67,71,69,64,99,77,50,29.74,29.56,0,-999,0,0.00
2013-6-1,79,70,60,64,54,49,93,60,37,30.06,29.72,0,-999,0,0.00
2013-6-2,79,64,51,54,50,46,93,62,31,30.16,29.98,0,-999,0,0.00
2013-6-3,86,69,56,61,58,52,97,71,43,30.00,29.76,0,-999,0,0.00
2013-6-4,87,74,65,71,67,63,99,80,57,29.97,29.78,0,-999,0,0.00
2013-6-5,80,71,62,71,54,-100,101,83,58,30.01,29.80,0,-999,0,0.00
2013-6-6,80,67,59,61,56,50,93,70,38,30.03,29.94,0,-999,0,0.00
2013-6-7,83,70,56,59,56,53,94,65,38,30.02,29.88,0,-999,0,0.00
2013-6-8,84,74,63,66,60,58,90,65,42,29.90,29.73,0,-999,0,0.00
2013-6-9,78,67,62,65,62,59,97,85,50,29.94,29.82,0,-999,0,0.00
2013-6-10,99,92,80,67,63,60,62,40,27,29.89,29.78,0,-999,0,0.00
2013-6-11,97,86,74,71,61,56,72,44,31,29.92,29.79,0,-999,0,0.00
2013-6-12,99,86,73,71,67,63,80,56,31,29.93,29.81,0,-999,0,0.00
2013-6-13,100,85,70,74,68,62,86,60,37,30.06,29.88,0,-999,0,0.00
2013-6-14,97,86,71,74,68,61,97,59,33,29.96,29.87,0,-999,0,0.00
2013-6-15,90,81,71,71,52,-100,83,61,40,30.00,29.85,0,-999,0,0.00
2013-6-16,94,80,70,71,68,64,90,68,38,30.02,29.87,0,-999,0,0.00
2013-6-17,87,78,70,70,60,-100,104,72,48,30.03,29.91,0,-999,0,0.00
2013-6-18,90,77,65,70,30,-100,101,72,39,30.06,29.92,0,-999,0,0.00
2013-6-19,86,77,69,71,68,66,95,75,54,30.00,29.88,0,-999,0,0.00
2013-6-20,94,80,72,73,71,68,96,77,42,29.93,29.84,0,-999,0,0.00
2013-6-22,94,89,81,69,65,61,64,45,33,29.93,29.80,0,-999,0,0.00
2013-6-23,94,86,75,69,66,61,75,53,33,29.86,29.78,0,-999,0,0.00
2013-6-24,95,85,76,69,67,65,71,56,38,29.92,29.77,0,-999,0,0.00
2013-6-25,97,91,83,73,71,69,67,52,43,29.81,29.70,0,-999,0,0.00
2013-6-26,102,87,72,74,70,66,84,58,37,29.92,29.75,0,-999,0,0.00
2013-6-27,108,89,71,74,71,61,95,61,27,30.06,29.80,0,-999,0,0.00
2013-6-28,99,85,69,72,65,61,96,56,29,30.05,29.89,0,-999,0,0.00
2013-6-29,92,80,70,67,62,57,85,56,32,30.05,29.87,0,-999,0,0.00
2013-6-30,85,76,64,59,54,51,71,48,33,30.07,29.94,0,-999,0,0.00
2013-7-1,83,72,59,58,52,45,81,51,26,30.15,30.06,0,-999,0,0.00
2013-7-2,87,72,58,55,50,48,74,49,27,30.16,30.04,0,-999,0,0.00
2013-7-3,90,72,56,56,52,51,84,54,27,30.09,29.95,0,-999,0,0.00
2013-7-5,95,87,74,63,60,57,64,42,31,29.94,29.81,0,-999,0,0.00
2013-7-6,99,85,74,65,61,56,64,47,25,29.91,29.82,0,-999,0,0.00
2013-7-7,100,88,75,67,63,60,66,46,27,29.98,29.89,0,-999,0,0.00
2013-7-8,100,84,71,69,66,64,78,55,31,30.04,29.94,0,-999,0,0.00
2013-7-9,104,90,78,69,66,62,73,49,26,30.00,29.89,0,-999,0,0.00
2013-7-10,107,89,78,68,66,64,66,49,25,30.01,29.91,0,-999,0,0.00
2013-7-11,97,91,82,70,67,63,65,45,35,29.99,29.89,0,-999,0,0.00
2013-7-12,102,87,71,71,68,65,93,58,31,29.96,29.87,0,-999,0,0.00
2013-7-13,105,89,75,71,69,64,81,54,27,29.98,29.86,0,-999,0,0.00
2013-7-14,86,74,68,70,25,-100,103,86,56,30.06,29.90,0,-999,0,0.00
2013-7-15,77,68,62,71,32,-100,101,92,67,30.16,30.04,0,-999,0,0.00
2013-7-16,88,76,68,72,69,67,99,82,50,30.27,30.15,0,-999,0,0.00
2013-7-17,90,77,70,75,7,-100,102,84,54,30.31,30.20,0,-999,0,0.00
2013-7-18,91,85,76,74,70,67,93,62,45,30.21,30.01,0,-999,0,0.00
2013-7-19,76,73,72,70,70,69,91,88,81,30.05,30.02,0,-999,0,0.00
2013-7-22,99,94,86,72,69,66,64,45,34,29.87,29.80,0,-999,0,0.00
2013-7-23,101,88,75,75,71,65,88,59,36,29.89,29.74,0,-999,0,0.00
2013-7-24,92,81,67,72,69,65,98,69,49,30.04,29.83,0,-999,0,0.00
2013-7-25,88,78,72,74,72,70,99,81,60,30.08,29.98,0,-999,0,0.00
2013-7-26,85,75,68,72,-8,-100,104,83,57,30.07,29.96,0,-999,0,0.00
2013-7-27,87,75,65,70,67,64,97,75,53,30.09,29.94,0,-999,0,0.00
2013-7-28,88,75,65,71,66,61,93,73,50,30.01,29.89,0,-999,0,0.00
2013-7-29,90,76,70,76,52,-100,103,85,62,29.95,29.81,0,-999,0,0.00
2013-7-30,84,76,70,75,0,-100,104,90,70,30.07,29.91,0,-999,0,0.00
2013-7-31,90,79,71,75,45,-100,101,81,52,30.15,30.04,0,-999,0,0.00
2013-8-1,92,81,67,74,55,-100,101,73,48,30.12,29.93,0,-999,0,0.00
2013-8-2,101,86,76,78,73,70,93,69,39,29.96,29.77,0,-999,0,0.00
2013-8-3,95,85,74,78,72,68,99,65,47,30.07,29.82,0,-999,0,0.00
2013-8-4,91,81,74,80,62,-100,103,86,59,30.06,29.92,0,-999,0,0.00
2013-8-5,100,86,75,78,14,-100,100,72,36,29.94,29.77,0,-999,0,0.00
2013-8-6,101,85,73,72,66,-100,90,62,36,29.88,29.73,0,-999,0,0.00
2013-8-7,93,83,76,76,71,67,82,67,43,29.88,29.82,0,-999,0,0.00
2013-8-8,90,77,67,75,36,-100,103,86,56,30.00,29.82,0,-999,0,0.00
2013-8-9,81,75,69,74,60,-100,100,88,72,30.11,29.90,0,-999,0,0.00
2013-8-10,85,74,64,69,51,-100,100,79,53,30.20,30.06,0,-999,0,0.00
2013-8-11,89,76,65,73,40,-100,101,82,55,30.13,30.00,0,-999,0,0.00
2013-8-12,90,82,72,76,73,68,94,74,59,30.05,29.94,0,-999,0,0.00
2013-8-13,86,75,67,75,28,-100,104,86,59,30.11,29.99,0,-999,0,0.00
2013-8-14,85,73,65,68,7,-100,102,81,48,30.16,30.03,0,-999,0,0.00
2013-8-15,84,73,66,73,66,-100,98,86,64,30.09,29.96,0,-999,0,0.00
2013-8-16,83,71,63,70,-6,-100,104,83,59,30.12,30.01,0,-999,0,0.00
2013-8-17,83,73,66,68,43,-100,100,82,56,30.16,30.04,0,-999,0,0.00
2013-8-18,86,74,64,68,65,62,95,76,53,30.13,30.02,0,-999,0,0.00
2013-8-19,90,76,66,70,65,-100,94,75,50,30.07,29.97,0,-999,0,0.00
2013-8-20,93,79,67,69,67,64,96,69,40,30.04,29.96,0,-999,0,0.00
2013-8-21,93,80,66,67,57,-100,94,64,36,30.07,29.99,0,-999,0,0.00
2013-8-22,94,86,76,72,60,-100,85,57,42,30.08,29.96,0,-999,0,0.00
2013-8-23,98,82,70,73,70,66,96,70,36,30.03,29.93,0,-999,0,0.00
2013-8-24,77,76,76,72,71,71,86,85,85,30.02,30.01,0,-999,0,0.00
2013-8-26,94,87,74,71,69,67,79,55,42,30.17,30.06,0,-999,0,0.00
2013-8-27,93,77,68,69,67,65,96,75,42,30.10,30.05,0,-999,0,0.00
2013-8-28,97,88,79,73,71,68,71,56,41,30.05,29.97,0,-999,0,0.00
2013-8-29,98,83,71,69,59,-100,84,60,31,30.05,29.96,0,-999,0,0.00
2013-8-30,105,86,71,69,45,-100,87,55,26,29.98,29.85,0,-999,0,0.00
2013-8-31,104,86,71,67,45,-100,76,52,27,29.89,29.77,0,-999,0,0.00
2013-9-1,93,80,74,72,68,62,87,66,44,29.97,29.79,0,-999,0,0.00
2013-9-2,90,78,65,70,62,57,92,61,33,30.09,29.97,0,-999,0,0.00
2013-9-3,96,75,60,64,60,55,97,63,28,30.11,29.99,0,-999,0,0.00
2013-9-4,96,78,58,64,53,-100,95,58,29,30.13,30.03,0,-999,0,0.00
2013-9-5,99,82,66,69,60,-100,91,58,32,30.15,30.04,0,-999,0,0.00
2013-9-6,100,84,69,70,66,63,86,57,31,30.09,29.96,0,-999,0,0.00
2013-9-7,102,86,71,68,61,-100,82,52,27,30.01,29.90,0,-999,0,0.00
2013-9-8,99,85,70,67,64,60,79,50,31,29.96,29.86,0,-999,0,0.00
2013-9-9,96,82,69,67,59,-100,76,50,28,29.96,29.88,0,-999,0,0.00
2013-9-10,94,81,70,69,63,59,78,55,36,30.07,29.94,0,-999,0,0.00
2013-9-11,95,81,66,68,63,60,80,55,35,30.13,30.02,0,-999,0,0.00
2013-9-12,95,80,70,68,66,63,84,64,36,30.12,30.03,0,-999,0,0.00
2013-9-13,78,72,64,68,61,55,91,70,45,30.13,29.99,0,-999,0,0.00
2013-9-14,81,67,59,64,56,53,85,67,57,30.02,29.98,0,-999,0,0.00
2013-9-16,82,76,70,71,64,-100,101,82,66,30.17,30.08,0,-999,0,0.00
2013-9-17,88,76,68,73,61,-100,100,84,57,30.13,29.93,0,-999,0,0.00
2013-9-18,79,72,70,70,68,64,93,88,60,29.96,29.86,0,-999,0,0.00
2013-9-19,90,78,68,70,66,64,98,68,44,29.98,29.82,0,-999,0,0.00
2013-9-20,72,66,55,68,39,-100,101,80,51,30.09,29.96,0,-999,0,0.00
2013-9-21,73,54,50,55,43,-100,100,95,52,30.05,30.02,0,-999,0,0.00
2013-9-23,85,76,66,59,35,-100,74,47,33,29.87,29.71,0,-999,0,0.00
2013-9-24,85,72,57,52,49,42,76,47,22,29.97,29.87,0,-999,0,0.00
2013-9-25,91,71,52,58,53,49,98,59,25,29.92,29.73,0,-999,0,0.00
2013-9-26,95,80,65,61,56,51,65,46,28,29.81,29.72,0,-999,0,0.00
2013-9-27,90,79,64,68,61,53,71,54,43,29.88,29.74,0,-999,0,0.00
2013-9-28,79,68,57,70,58,46,99,72,39,30.08,29.76,0,-999,0,0.00
2013-9-30,84,78,67,57,55,53,64,46,37,29.85,29.77,0,-999,0,0.00
2013-10-1,79,74,70,65,64,63,78,70,61,29.91,29.86,0,-999,0,0.00
2013-10-2,86,74,63,71,40,-100,102,81,57,29.93,29.80,0,-999,0,0.00
2013-10-3,89,79,70,71,68,66,95,72,49,29.83,29.67,0,-999,0,0.00
2013-10-4,90,78,59,70,67,42,97,69,47,30.01,29.71,0,-999,0,0.00
2013-10-5,68,57,49,44,37,34,59,48,28,30.16,29.98,0,-999,0,0.00
2013-10-7,73,64,53,43,40,38,63,42,28,30.19,30.17,0,-999,0,0.00
2013-10-8,80,72,64,49,47,46,57,42,32,30.06,29.93,0,-999,0,0.00
2013-10-9,82,67,53,55,52,49,91,60,34,30.00,29.91,0,-999,0,0.00
2013-10-10,83,69,58,62,57,53,88,65,46,29.97,29.77,0,-999,0,0.00
2013-10-11,85,71,56,63,44,-100,86,55,16,29.86,29.73,0,-999,0,0.00
2013-10-12,74,62,50,46,44,41,80,53,32,30.19,29.89,0,-999,0,0.00
2013-10-13,65,54,49,54,45,43,81,71,58,30.28,30.19,0,-999,0,0.00
2013-10-17,73,59,41,48,31,-100,93,57,32,30.06,29.95,0,-999,0,0.00
2013-10-18,50,43,32,42,39,31,96,86,56,30.19,30.02,0,-999,0,0.00
2013-10-19,70,49,31,42,37,30,97,69,33,30.18,29.96,0,-999,0,0.00
2013-10-20,52,48,44,41,38,37,77,68,60,29.97,29.89,0,-999,0,0.00
2013-10-21,63,57,49,40,37,35,59,48,39,30.16,30.08,0,-999,0,0.00
2013-10-22,76,64,47,43,41,38,72,44,30,30.08,30.02,0,-999,0,0.00
2013-10-23,72,55,41,49,43,38,92,66,41,30.15,29.98,0,-999,0,0.00
2013-10-24,58,48,41,45,38,33,88,67,41,30.39,30.10,0,-999,0,0.00
2013-10-25,62,47,34,45,36,29,83,66,41,30.43,30.15,0,-999,0,0.00
2013-10-26,62,54,51,56,49,44,95,84,71,30.16,30.09,0,-999,0,0.00
2013-10-28,65,64,63,62,60,59,90,87,84,30.01,29.95,0,-999,0,0.00
2013-10-29,72,68,63,66,62,57,93,83,71,29.97,29.90,0,-999,0,0.00
2013-10-30,80,71,56,68,65,54,92,81,60,29.93,29.70,0,-999,0,0.00
2013-10-31,67,56,50,53,17,-100,101,75,38,29.79,29.60,0,-999,0,0.00
2013-11-1,65,52,45,44,39,34,76,60,38,30.11,29.79,0,-999,0,0.00
2013-11-2,64,50,39,35,33,31,76,55,31,30.32,30.11,0,-999,0,0.00
2013-11-3,66,54,40,42,37,33,75,53,36,30.14,29.82,0,-999,0,0.00
2013-11-4,69,58,49,55,47,42,87,67,44,30.01,29.81,0,-999,0,0.00
2013-11-5,64,59,45,64,57,41,99,93,86,30.07,29.84,0,-999,0,0.00
2013-11-6,57,44,37,39,36,33,88,75,45,30.34,30.09,0,-999,0,0.00
2013-11-7,69,49,35,40,36,30,85,64,29,30.46,30.30,0,-999,0,0.00
2013-11-8,66,53,38,38,35,30,82,54,28,30.28,29.91,0,-999,0,0.00
2013-11-9,51,48,47,40,40,37,75,71,59,29.98,29.98,0,-999,0,0.00
2013-11-12,39,32,24,17,14,11,70,49,31,30.83,30.68,0,-999,0,0.00
2013-11-13,54,35,17,24,19,12,89,55,31,30.68,30.20,0,-999,0,0.00
2013-11-14,58,45,36,39,30,20,81,56,39,30.18,29.90,0,-999,0,0.00
2013-11-15,67,49,31,47,40,30,97,72,43,29.94,29.66,0,-999,0,0.00
2013-11-16,80,67,54,54,45,-100,79,59,31,29.66,29.42,0,-999,0,0.00
2013-11-17,71,58,41,47,32,21,67,39,20,30.14,29.47,0,-999,0,0.00
2013-11-18,53,38,33,30,23,21,66,55,40,30.27,30.13,0,-999,0,0.00
2013-11-22,31,29,28,23,20,17,80,66,57,30.58,30.55,0,-999,0,0.00
2013-11-25,38,34,30,30,29,26,90,81,73,30.22,30.17,0,-999,0,0.00
2013-11-26,45,34,28,28,26,25,91,76,44,30.31,30.20,0,-999,0,0.00
2013-12-3,67,51,42,46,43,40,93,75,45,29.49,29.45,0,-999,0,0.00
2013-12-4,45,34,26,43,27,10,96,75,49,30.09,29.43,0,-999,0,0.00
2013-12-5,26,21,18,12,7,4,75,54,47,30.31,30.09,0,-999,0,0.00
2013-12-6,24,18,13,13,5,0,84,57,36,30.56,30.28,0,-999,0,0.00
2013-12-7,20,14,6,10,4,0,84,66,51,30.61,30.24,0,-999,0,0.00
2013-12-8,29,22,18,22,18,10,99,84,66,30.24,29.92,0,-999,0,0.00
2013-12-9,26,18,9,21,4,-100,101,82,53,30.37,30.17,0,-999,0,0.00
2013-12-10,47,24,4,22,4,-100,101,71,26,30.37,30.12,0,-999,0,0.00
2013-12-11,38,27,19,23,18,12,98,71,38,30.58,30.13,0,-999,0,0.00
2013-12-17,47,45,42,28,26,24,50,48,46,30.33,30.29,0,-999,0,0.00
2013-12-18,70,62,55,39,37,34,53,40,26,29.92,29.76,0,-999,0,0.00
2013-12-19,66,57,50,51,47,41,87,70,50,29.76,29.57,0,-999,0,0.00
2013-12-20,53,28,22,47,21,14,87,74,59,29.99,29.65,0,-999,0,0.00
2013-12-21,29,26,25,28,24,20,99,91,75,29.83,29.55,0,-999,0,0.00
2013-12-22,31,23,14,25,14,-100,101,90,78,30.33,29.81,0,-999,0,0.00
2013-12-23,23,18,9,22,-19,-100,102,97,90,30.55,30.33,0,-999,0,0.00
2013-12-24,32,27,21,31,22,-100,101,96,95,30.52,30.12,0,-999,0,0.00
2013-12-25,42,30,23,35,-34,-100,103,96,74,30.41,30.24,0,-999,0,0.00
2013-12-26,58,48,35,33,29,27,74,51,32,30.33,30.20,0,-999,0,0.00
2013-12-27,57,37,29,35,29,26,87,74,42,30.35,30.23,0,-999,0,0.00
2013-12-28,58,42,30,41,32,26,95,69,36,30.21,29.85,0,-999,0,0.00
2013-12-29,42,26,14,40,17,7,96,69,50,30.32,29.88,0,-999,0,0.00
2013-12-30,46,25,8,23,14,6,92,66,36,30.33,30.19,0,-999,0,0.00
2013-12-31,55,42,29,28,25,22,76,55,30,30.33,30.03,0,-999,0,0.00
2014-1-1,46,30,18,33,24,15,95,80,58,30.34,29.88,0,-999,0,0.00
2014-1-2,44,25,11,25,18,9,95,76,46,30.46,30.33,0,-999,0,0.00